Location: Newark
(28.9833°N, 10.0667°W)
Time: 18:23:30
(UTC+00:00)

Hubble Space Telescope - Pass Details

Date: 14 December 2019
Orbit: 536 x 540 km, 28.5° (Epoch: 24 January)

Event Time Altitude Azimuth Distance (km) Brightness Sun altitude
Exits shadow 05:13:40 22° 159° (SSE) 1,180 2.8 -28.0°
Maximum altitude 05:13:45 23° 157° (SSE) 1,179 2.8 -28.0°
Drops below altitude 10° 05:17:01 10° 105° (ESE) 1,785 4.4 -27.3°
Sets 05:19:38 0° 90° (E) 2,677 5.5 -26.7°
